TimeCST,TemperatureF,Dew PointF,Humidity,Sea Level PressureIn,VisibilityMPH,Wind Direction,Wind SpeedMPH,Gust SpeedMPH,PrecipitationIn,Events,Conditions,WindDirDegrees,DateUTC
12:15 AM,38.3,31.3,76,29.80,10.0,South,9.2,-,N/A,,Clear,180,2013-12-19 06:15:00
12:35 AM,38.3,31.3,76,29.80,10.0,South,9.2,-,N/A,,Clear,180,2013-12-19 06:35:00
12:55 AM,37.9,31.1,76,29.79,10.0,South,9.2,-,N/A,,Clear,180,2013-12-19 06:55:00
1:15 AM,37.9,31.1,76,29.79,10.0,South,9.2,-,N/A,,Clear,180,2013-12-19 07:15:00
1:35 AM,37.9,31.1,76,29.79,10.0,South,10.4,-,N/A,,Clear,180,2013-12-19 07:35:00
1:55 AM,38.3,31.1,75,29.79,10.0,South,9.2,-,N/A,,Clear,190,2013-12-19 07:55:00
2:15 AM,38.3,31.1,75,29.80,10.0,South,8.1,-,N/A,,Clear,190,2013-12-19 08:15:00
2:35 AM,37.4,31.1,78,29.80,10.0,SSW,8.1,-,N/A,,Clear,200,2013-12-19 08:35:00
2:55 AM,36.9,30.9,79,29.81,10.0,SSW,6.9,-,N/A,,Clear,200,2013-12-19 08:55:00
3:15 AM,36.7,30.9,80,29.81,10.0,South,8.1,-,N/A,,Clear,190,2013-12-19 09:15:00
3:35 AM,36.7,30.9,80,29.80,10.0,South,9.2,-,N/A,,Clear,190,2013-12-19 09:35:00
3:55 AM,36.7,31.1,80,29.80,10.0,South,8.1,-,N/A,,Clear,190,2013-12-19 09:55:00
4:15 AM,36.9,31.1,80,29.80,10.0,South,8.1,-,N/A,,Clear,190,2013-12-19 10:15:00
4:35 AM,36.5,31.1,81,29.80,10.0,South,9.2,-,N/A,,Clear,190,2013-12-19 10:35:00
4:55 AM,36.5,31.3,81,29.80,10.0,South,8.1,-,N/A,,Clear,190,2013-12-19 10:55:00
5:15 AM,36.7,31.5,81,29.80,10.0,South,8.1,-,N/A,,Clear,190,2013-12-19 11:15:00
5:35 AM,37.4,31.6,80,29.80,10.0,SSW,6.9,-,N/A,,Clear,200,2013-12-19 11:35:00
5:55 AM,36.9,31.6,81,29.80,10.0,South,6.9,-,N/A,,Clear,190,2013-12-19 11:55:00
6:15 AM,36.5,31.6,83,29.80,10.0,South,5.8,-,N/A,,Clear,180,2013-12-19 12:15:00
6:35 AM,36.0,31.6,84,29.81,10.0,South,8.1,-,N/A,,Clear,190,2013-12-19 12:35:00
6:55 AM,36.0,31.8,85,29.81,10.0,SSW,3.5,-,N/A,,Clear,200,2013-12-19 12:55:00
7:15 AM,36.5,32.0,84,29.82,10.0,Calm,Calm,-,N/A,,Clear,0,2013-12-19 13:15:00
7:35 AM,35.1,31.8,88,29.82,10.0,Calm,Calm,-,N/A,,Clear,0,2013-12-19 13:35:00
7:55 AM,34.3,31.3,89,29.83,10.0,North,3.5,-,N/A,,Clear,10,2013-12-19 13:55:00
8:15 AM,34.5,31.6,89,29.84,10.0,Calm,Calm,-,N/A,,Clear,0,2013-12-19 14:15:00
8:35 AM,33.8,31.5,91,29.84,10.0,ENE,3.5,-,N/A,,Clear,60,2013-12-19 14:35:00
8:55 AM,34.9,32.0,89,29.84,10.0,East,3.5,-,N/A,,Clear,90,2013-12-19 14:55:00
9:15 AM,36.1,32.5,87,29.84,10.0,East,3.5,-,N/A,,Clear,80,2013-12-19 15:15:00
9:35 AM,37.4,33.3,85,29.85,10.0,Calm,Calm,-,N/A,,Clear,0,2013-12-19 15:35:00
9:55 AM,37.8,33.8,86,29.85,10.0,Calm,Calm,-,N/A,,Clear,0,2013-12-19 15:55:00
10:15 AM,38.8,34.7,85,29.85,10.0,NE,3.5,-,N/A,,Clear,40,2013-12-19 16:15:00
10:35 AM,38.8,34.7,85,29.85,10.0,NNE,3.5,-,N/A,,Clear,20,2013-12-19 16:35:00
10:55 AM,39.6,35.2,85,29.86,10.0,Calm,Calm,-,N/A,,Clear,0,2013-12-19 16:55:00
11:15 AM,40.3,35.8,84,29.85,10.0,NE,3.5,-,N/A,,Clear,40,2013-12-19 17:15:00
11:35 AM,41.9,36.0,79,29.83,10.0,ENE,4.6,-,N/A,,Clear,60,2013-12-19 17:35:00
11:55 AM,42.6,36.0,77,29.83,10.0,ENE,3.5,-,N/A,,Clear,70,2013-12-19 17:55:00
12:15 PM,43.0,36.3,77,29.81,10.0,ENE,4.6,-,N/A,,Clear,70,2013-12-19 18:15:00
12:35 PM,43.7,36.5,76,29.80,10.0,ENE,3.5,-,N/A,,Scattered Clouds,60,2013-12-19 18:35:00
12:55 PM,43.7,36.7,76,29.79,10.0,NNE,4.6,-,N/A,,Mostly Cloudy,30,2013-12-19 18:55:00
1:15 PM,43.7,36.7,76,29.78,10.0,NE,5.8,-,N/A,,Overcast,50,2013-12-19 19:15:00
1:35 PM,43.3,37.4,80,29.78,10.0,NE,5.8,-,N/A,,Overcast,40,2013-12-19 19:35:00
1:55 PM,42.8,37.0,80,29.77,10.0,NE,5.8,-,N/A,,Overcast,50,2013-12-19 19:55:00
2:15 PM,42.1,36.5,81,29.77,10.0,ENE,6.9,-,N/A,,Overcast,60,2013-12-19 20:15:00
2:35 PM,41.7,36.5,82,29.76,10.0,NE,6.9,-,N/A,,Overcast,50,2013-12-19 20:35:00
2:55 PM,41.5,36.0,81,29.76,10.0,ENE,8.1,-,N/A,,Overcast,60,2013-12-19 20:55:00
3:15 PM,41.0,35.8,82,29.76,10.0,NE,5.8,-,N/A,,Overcast,50,2013-12-19 21:15:00
3:35 PM,40.6,35.6,82,29.76,10.0,ENE,8.1,-,N/A,,Overcast,60,2013-12-19 21:35:00
3:55 PM,40.1,35.6,84,29.76,10.0,East,6.9,-,N/A,,Overcast,80,2013-12-19 21:55:00
4:15 PM,39.7,35.6,85,29.77,10.0,East,5.8,-,N/A,,Overcast,80,2013-12-19 22:15:00
4:35 PM,39.6,35.8,86,29.76,10.0,ENE,5.8,-,N/A,,Overcast,60,2013-12-19 22:35:00
4:55 PM,39.2,35.6,87,29.76,10.0,ENE,5.8,-,N/A,,Overcast,60,2013-12-19 22:55:00
5:15 PM,38.8,35.6,88,29.76,10.0,NNE,5.8,-,N/A,,Light Drizzle,30,2013-12-19 23:15:00
5:35 PM,38.3,35.2,89,29.76,7.0,NE,6.9,-,N/A,Rain,Light Rain,40,2013-12-19 23:35:00
5:55 PM,38.3,35.6,90,29.75,7.0,NE,6.9,-,N/A,Rain,Light Rain,50,2013-12-19 23:55:00
6:15 PM,38.1,35.6,91,29.74,5.0,ENE,9.2,-,N/A,Rain,Light Rain,70,2013-12-20 00:15:00
6:35 PM,37.9,35.8,92,29.75,5.0,ENE,6.9,-,N/A,Rain,Light Rain,60,2013-12-20 00:35:00
6:55 PM,37.6,35.6,93,29.75,4.0,NNE,6.9,-,N/A,,Heavy Drizzle,30,2013-12-20 00:55:00
7:15 PM,37.6,35.8,93,29.74,4.0,NNE,8.1,-,N/A,,Light Drizzle,30,2013-12-20 01:15:00
7:35 PM,37.6,36.0,94,29.74,3.0,NNE,8.1,-,N/A,,Light Drizzle,30,2013-12-20 01:35:00
7:55 PM,37.0,35.6,95,29.74,3.0,North,8.1,-,N/A,Rain,Light Rain,10,2013-12-20 01:55:00
8:15 PM,36.7,35.4,95,29.74,2.5,North,8.1,-,N/A,Rain,Rain,10,2013-12-20 02:15:00
8:35 PM,36.5,34.9,94,29.74,2.0,North,9.2,-,N/A,Rain,Rain,10,2013-12-20 02:35:00
8:55 PM,36.1,34.7,94,29.74,1.8,NNE,9.2,-,N/A,,Light Drizzle,20,2013-12-20 02:55:00
9:15 PM,36.0,34.7,95,29.74,1.5,NNE,8.1,-,N/A,,Light Drizzle,30,2013-12-20 03:15:00
9:35 PM,35.8,34.7,96,29.73,1.5,NNE,6.9,-,N/A,,Drizzle,30,2013-12-20 03:35:00
9:55 PM,35.8,34.7,96,29.73,1.2,NNE,6.9,-,N/A,,Light Drizzle,30,2013-12-20 03:55:00
10:15 PM,35.6,34.3,95,29.74,1.2,NNE,5.8,-,N/A,,Light Drizzle,30,2013-12-20 04:15:00
10:35 PM,35.6,34.3,95,29.73,1.0,NNE,6.9,-,N/A,Rain,Rain,20,2013-12-20 04:35:00
10:55 PM,35.6,34.2,94,29.73,1.0,NNE,6.9,-,N/A,,Overcast,20,2013-12-20 04:55:00
11:15 PM,35.6,34.3,95,29.73,1.2,NNE,6.9,-,N/A,,Overcast,20,2013-12-20 05:15:00
11:35 PM,35.6,34.3,95,29.73,1.2,NNE,5.8,-,N/A,,Overcast,30,2013-12-20 05:35:00
11:55 PM,35.6,34.2,94,29.73,1.0,North,4.6,-,N/A,,Overcast,360,2013-12-20 05:55:00